Starlink 32255

operational
NORAD ID: 60417 Int'l Des: 2024-141 Owner: SPXS Country: US Constellation: starlink
LEOCIRCULAR

Starlink 32255について

説明を読み込み中...

リアルタイム位置

3D地球を読み込み中...

次回通過

高度履歴

Altitude vs Time

uPlot chart will show altitude changes over time

軌道要素

1 60417U 24141V 25354.02558929 -.00000492 00000-0 -44897-5 0 9993
2 60417 53.1605 252.6207 0001067 90.5997 269.5126 15.30192107 77382
Epoch: Dec 20, 2025 • Age: 21 hours

現在のステータス

高度 477.1 km
速度 7.63 km/s
衛星直下点 -5.83°S, 16.05°E
打ち上げ日 Aug 10, 2024
運用期間 1.3 years
タイプ internet

技術仕様

分類 Payload
質量 730.00 kg
乾燥質量 700.00 kg
総質量 730.00 kg
長さ 0.30 m
直径 4.10 m
スパン 29.00 m
形状 Box + pan
製造者 SPXS
バスタイプ Starlink V2M
フェーズステータス In Orbit
所有者/国 SPXS/US

大規模コンステレーション

Loading constellations...